Location: Kielce
(50.8833°N, 20.6167°E)
Time: 21:36:05
(UTC+02:00)

SR - Pass Details

Date: 27 April 2021
Orbit: 573 x 882 km, 66.7° (Epoch: 09 May)

Event Time Altitude Azimuth Distance (km) Brightness Sun altitude
Rises 11:21:18 0° 309° (NW) 3,488 ? 50.2°
Reaches altitude 10° 11:24:42 10° 328° (NNW) 2,549 ? 50.4°
Maximum altitude 11:28:39 18° 9° (N) 2,024 ? 50.7°
Drops below altitude 10° 11:32:32 10° 51° (NE) 2,499 ? 51.0°
Sets 11:35:50 0° 71° (ENE) 3,393 ? 51.2°
